User: anonymous   Login
Location: Albany
(35.0170°S, 117.8920°E)
Time: 02:07:21
(UTC+08:00)
Language:

Envisat - Orbit

View from above orbital plane
View from above orbital plane
View from above satellite
View from above satellite

Ground track
Ground track

The orbit data is extracted from the following two-line orbital elements,

1 27386U 02009A   21016.49311941  .00000015  00000-0  18544-4 0  9991
2 27386  98.1414  18.3748 0001205  86.3299  25.9710 14.38008893989230
Epoch (UTC): 16 January 2021 11:50:05
Eccentricity: 0.0001205
inclination: 98.1414°
perigee height: 764 km
apogee height: 766 km
right ascension of ascending node: 18.3748°
argument of perigee: 86.3299°
revolutions per day: 14.38008893
mean anomaly at epoch: 25.9710°
orbit number at epoch: 98923

The dashed part of the orbit path shows where the satellite is in the earth's shadow,  

DLR